Powrót do katalogu

STARLINK-11552

AktywnyŁącznośćVLEO
NORAD 62907·PAYLOAD·🇺🇸 United States

Wystrzelony Feb 8, 2025 z Cape Canaveral Space Force Station

Loading…

Następne Przeloty (najbliższe 24 godziny)

TLE

ŚwieżeSource: CelesTrak SupGP

Epoka: Sep 14, 2026, 21:47 UTC

1 62907C 25027A   26257.90812500 -.00018296  00000+0 -14214-3 0  2576
2 62907  43.0004 287.2258 0001510 261.4128 330.3907 15.70840557    10

Śledź STARLINK-11552 w czasie rzeczywistym z AllMySat

Download on the App Store